Vertical_Velocity
2 0 1 -1 -0 0 -2 1 0 -0 -0 -0 -0 -0 -0 -2 -0 1 1 -1 1 0 -1 -2 -1 -1 -0 -0 -2 -1 -1 -1 -1 -0 -1 -2 -3 -1 0 -0 -0 1 -1 0 -1 -2 -2
-1 1 -1 1 -0 0 -0 -1 1 1 -0 0 -0 -1 -1 0 -2 -1 -0 0 -0 -1 -1 1 0 1 -0 -1 -1 -1 -1 0 -1 -2 -1 -3 -1 -0 -0 -0 -1 1 0 -6 -4 -4 -0
1 -1 1 0 -0 -1 1 0 -0 0 1 -2 0 -0 -1 -1 -0 -1 -2 -1 -0 -1 -1 0 -0 -0 0 -5 -1 -0 -1 -1 -1 -1 -0 -1 -2 -2 1 -1 2 0 -1 -3 -0 -1 -2
0 -1 1 0 1 1 0 1 1 1 1 0 -1 -1 -2 -1 -1 -0 -1 -1 -0 -1 -0 0 0 -0 -6 0 0 -0 -1 2 -0 1 2 1 1 1 0 1 -1 -0 0 -2 -8 -0 -4
-0 0 0 1 1 2 1 0 1 1 0 1 1 -0 -0 -1 0 -1 0 -2 -1 1 -3 -0 -1 -0 -5 1 0 -1 0 -0 0 0 2 2 1 1 -0 -1 -4 -3 -1 0 -10 -0 -0
1 -1 0 0 -0 1 1 2 0 -0 1 2 -0 1 -1 -1 -1 0 -2 1 -0 -1 0 1 0 -1 -0 0 0 -0 -1 1 -1 0 -0 -1 -1 -1 -2 -3 -3 -2 -1 -2 -1 -8 1
-1 -0 1 0 0 -1 -0 1 2 1 -0 0 0 1 1 -1 -0 -1 -1 -1 -1 -1 1 -2 -1 -1 -1 1 0 1 0 1 0 -0 -1 -0 -4 -1 -2 -2 -1 1 1 0 -7 -4 4
0 -2 0 1 1 1 -0 -2 -1 0 -0 1 -0 1 1 -0 -1 1 -2 -5 -2 -0 -10 1 2 -2 1 0 -1 1 -0 0 -1 -1 -0 -5 -2 -2 0 1 2 1 1 -4 -6 -0 3
-2 -2 -2 -1 -3 -2 -2 -1 -1 0 -1 -1 -0 1 1 -2 -1 0 -0 -2 -1 -0 2 -2 1 -0 -0 -0 -0 0 -0 0 -0 -0 -0 -1 -6 0 1 -1 1 -1 -0 -1 0 -3 -0
-3 -5 -3 -2 1 -1 -2 -2 -1 -2 -2 -3 1 -1 -1 -0 1 -3 -2 -2 1 -0 -6 -7 0 1 0 -1 -1 0 0 0 -0 -0 0 -3 -3 1 -0 -0 -0 1 -1 1 1 -2 -3
3 2 2 0 -0 -3 -3 -1 -2 -4 -0 -1 0 -1 -3 0 1 0 -0 -0 -1 2 -10 -10 -1 2 1 -1 0 -1 0 1 -0 -1 -6 -15 -0 -1 0 -2 -0 -11 2 2 0 0 -2
-1 -3 -4 -2 -2 -1 -0 -3 -4 -1 -0 -2 -1 -2 -2 0 -1 4 -1 -0 2 -21 -17 -2 -0 -1 -1 0 -0 1 -0 -0 1 0 1 -3 0 1 -3 -1 -0 -1 -1 -0 -1 -1 -4
-3 -2 -3 -1 -2 -3 -3 -2 -1 -1 -4 -2 -2 0 -5 1 -4 6 -0 -1 -16 -8 -10 -2 -1 0 0 -1 -1 0 0 -1 -2 -6 -3 -4 -1 -1 1 -1 -1 -5 -5 -6 -11 -9 -6
-2 -3 -3 -0 -2 -1 -2 -0 0 -1 -2 -3 -1 -2 1 -1 -4 -2 5 -11 -1 -7 -2 -1 -0 0 0 -1 -1 -0 -0 -1 1 -1 -1 -2 -19 -1 0 -1 1 1 -2 -5 -0 -1 -5
-2 -2 -1 -3 -3 -2 -0 -2 -5 -2 -1 -3 -1 -2 -1 2 4 1 -3 -3 -11 -2 -2 0 0 1 -1 0 -0 0 -0 -1 -2 -3 -5 -2 -6 -2 0 -0 -6 -1 -3 -3 -1 -1 -2
-2 -0 -1 -4 -1 -1 -3 -3 -2 -2 -3 -4 -2 -1 1 1 1 4 -5 -6 -2 -1 0 0 -1 -3 0 -1 1 1 -1 -5 -1 -2 -1 -2 -6 -1 -2 -0 -0 -1 -4 -7 -4 -3 -2
-1 -4 0 0 0 -4 -1 -2 -7 -2 -4 0 -3 -1 5 6 2 1 -4 -5 -1 -1 1 -3 -1 1 -2 -1 -0 -1 -4 -6 -0 1 -0 -2 -5 -11 -0 -1 -4 -1 -0 -1 -5 -3 -2
-1 -1 -2 -5 -4 2 -4 -2 -3 -5 -5 0 -0 -3 1 -1 0 1 -0 -1 3 -1 1 -1 1 0 -2 -0 0 1 -3 -2 1 -3 -1 -4 -4 -1 -8 1 -0 -1 -1 -3 -6 -4 -1
-3 1 -3 -2 -5 -7 -3 -2 -4 -4 1 -6 -1 -2 -1 3 -2 -1 -3 -2 2 -0 -0 -0 -0 -1 0 -1 -3 -0 -0 -1 1 -1 -4 -5 -2 -3 -15 -8 -1 0 -0 -1 -1 -2 -3
-3 5 4 -3 -3 1 1 -4 -2 -7 -1 2 -1 -3 0 -0 -0 1 0 -2 -2 1 -0 1 -0 -0 0 0 -0 -2 -0 -0 0 -0 1 -0 -0 -5 -8 -10 -2 1 0 0 -3 -1 -3
-4 -6 -4 1 5 -1 -1 -0 -2 -3 -3 -1 -0 -1 5 -3 -3 -0 0 1 -0 -3 0 1 -2 0 2 0 -0 -0 -1 -4 -1 0 0 -3 -0 1 -2 -1 1 -1 0 -0 0 -4 -5
-1 -5 -3 -1 1 -0 1 -4 -5 -7 -4 -3 0 -1 -7 -2 1 1 -1 -2 1 -3 4 -2 -3 0 0 1 4 -0 3 -0 -2 -2 -0 -1 -3 0 -1 -1 1 1 -0 0 -0 -1 2
4 4 1 -4 -5 2 2 -6 -3 -4 -4 1 -4 3 3 -4 -1 -1 0 1 2 1 -4 3 5 2 -1 -0 4 -1 -0 1 -2 -0 -1 -0 -1 -1 -6 0 -1 1 -8 -2 -1 -0 -6
-4 -0 5 2 1 -2 -2 -1 -1 0 -2 -1 -2 -3 1 -4 1 1 -0 5 1 1 4 -7 -1 5 -8 -5 -12 -2 4 2 6 -3 -1 -1 0 -0 -1 -1 3 -17 -0 -2 -3 -2 0
-1 6 3 2 1 -1 -4 0 -2 0 5 -0 -0 -0 0 -1 3 -5 -1 1 -3 -6 1 4 -5 8 1 1 1 -1 -3 -1 -4 -2 2 0 -1 -1 -1 -1 -14 -9 -13 -3 -5 -13 -2
-2 0 2 -1 1 0 0 0 -2 3 3 -1 3 1 1 2 -5 0 -0 -1 1 0 -3 1 -4 -5 3 1 2 1 -2 -2 -4 1 -1 0 -2 2 1 0 -1 -6 -1 -0 -1 -6 -3
-1 -4 -3 1 -0 -0 -2 -2 -1 -1 6 10 -3 3 3 3 -17 2 -2 -2 -2 1 1 -3 0 -12 12 -0 1 1 -4 -1 -2 -0 -0 1 1 -3 -1 -0 -8 -3 -1 -0 -2 -21 -0
2 2 1 1 -1 -2 -3 -2 -3 -1 -2 24 -9 8 6 0 -20 4 5 -0 -2 4 -0 -7 -13 2 0 2 3 -2 2 -4 4 -4 -4 -5 -3 -1 3 5 -8 -2 -1 -4 -13 -0 0
-3 -5 -5 -3 -1 -4 -4 -2 1 -2 0 16 1 3 10 17 -14 -3 -4 -6 1 -7 11 3 -7 1 -1 -1 -2 -1 -2 -1 3 -2 -4 2 -9 -7 -8 -12 -2 -3 -2 -2 -3 -0 -2
Height
1561 1561 1560 1560 1558 1557 1556 1554 1553 1551 1548 1546 1543 1541 1539 1537 1535 1534 1532 1531 1530 1529 1529 1529 1528 1526 1525 1524 1523 1520 1519 1517 1515 1514 1512 1510 1510 1511 1512 1510 1509 1508 1501 1496 1491 1487 1486
1562 1562 1561 1560 1559 1558 1557 1556 1553 1552 1550 1547 1544 1542 1539 1537 1535 1533 1531 1529 1528 1528 1528 1527 1526 1525 1524 1524 1521 1520 1519 1517 1515 1514 1513 1512 1512 1511 1510 1509 1508 1503 1501 1493 1485 1481 1481
1563 1563 1562 1561 1560 1558 1557 1556 1555 1553 1551 1548 1545 1543 1540 1537 1535 1533 1531 1528 1527 1526 1526 1526 1525 1524 1523 1522 1519 1519 1518 1517 1515 1513 1513 1512 1511 1511 1510 1507 1504 1502 1501 1490 1481 1479 1478
1564 1563 1562 1561 1560 1559 1558 1557 1555 1553 1551 1548 1546 1543 1540 1538 1535 1532 1530 1528 1526 1525 1525 1524 1524 1523 1520 1518 1518 1518 1517 1516 1514 1513 1512 1511 1510 1509 1508 1505 1502 1503 1503 1501 1480 1478 1475
1565 1564 1563 1562 1561 1560 1558 1557 1556 1553 1551 1549 1546 1543 1540 1538 1535 1532 1529 1527 1525 1523 1523 1523 1523 1522 1518 1517 1517 1516 1516 1515 1513 1512 1511 1511 1510 1509 1508 1508 1508 1507 1508 1501 1491 1477 1476
1566 1565 1564 1563 1561 1559 1558 1557 1556 1553 1551 1549 1546 1543 1540 1538 1535 1532 1528 1525 1523 1522 1521 1521 1520 1524 1518 1517 1515 1514 1513 1513 1512 1511 1510 1511 1510 1511 1511 1512 1516 1506 1507 1500 1498 1479 1476
1567 1566 1565 1564 1563 1560 1558 1556 1555 1553 1551 1548 1546 1543 1540 1537 1534 1532 1529 1525 1526 1523 1520 1518 1518 1517 1516 1516 1514 1512 1512 1511 1510 1510 1511 1511 1515 1515 1507 1506 1503 1505 1506 1503 1485 1478 1478
1567 1566 1565 1564 1562 1561 1558 1556 1554 1552 1551 1548 1545 1542 1539 1536 1534 1531 1529 1527 1527 1528 1519 1513 1513 1514 1514 1514 1513 1512 1512 1512 1511 1512 1511 1513 1513 1502 1502 1501 1502 1502 1501 1496 1481 1475 1477
1568 1567 1566 1563 1561 1559 1558 1556 1554 1551 1550 1547 1544 1542 1539 1536 1534 1532 1529 1528 1526 1525 1523 1512 1511 1511 1513 1515 1513 1512 1512 1510 1510 1511 1511 1512 1503 1501 1500 1498 1497 1496 1494 1489 1486 1478 1474
1569 1567 1566 1563 1562 1559 1558 1556 1553 1551 1549 1546 1543 1541 1538 1535 1536 1532 1530 1529 1527 1525 1532 1514 1512 1511 1512 1512 1512 1511 1511 1513 1510 1510 1509 1510 1501 1500 1498 1497 1496 1497 1485 1484 1484 1484 1490
1568 1567 1565 1563 1561 1559 1557 1554 1552 1549 1547 1545 1543 1540 1537 1535 1534 1532 1532 1529 1527 1527 1557 1515 1512 1511 1510 1512 1512 1511 1511 1510 1510 1509 1511 1503 1500 1500 1499 1492 1493 1491 1483 1484 1482 1482 1488
1568 1566 1564 1561 1558 1556 1554 1552 1549 1547 1545 1543 1541 1539 1536 1535 1533 1532 1530 1528 1528 1539 1545 1513 1511 1511 1511 1510 1510 1509 1509 1510 1509 1509 1509 1505 1500 1500 1496 1492 1491 1488 1482 1481 1485 1488 1494
1565 1563 1561 1558 1555 1553 1551 1548 1545 1543 1541 1539 1538 1537 1535 1533 1533 1531 1530 1529 1541 1544 1515 1512 1510 1510 1511 1510 1508 1508 1508 1509 1511 1516 1511 1505 1498 1495 1495 1494 1490 1491 1493 1506 1494 1497 1490
1561 1559 1556 1554 1551 1548 1545 1543 1540 1538 1536 1533 1533 1532 1530 1530 1529 1530 1530 1531 1540 1520 1514 1508 1509 1511 1511 1507 1507 1507 1508 1511 1508 1510 1523 1525 1512 1493 1494 1494 1496 1498 1500 1520 1506 1513 1500
1558 1555 1553 1551 1549 1546 1542 1539 1536 1533 1531 1529 1527 1526 1526 1524 1525 1526 1530 1547 1532 1517 1507 1508 1509 1509 1508 1507 1508 1507 1507 1508 1503 1505 1510 1519 1504 1493 1493 1493 1495 1496 1505 1502 1505 1508 1521
1557 1554 1551 1549 1547 1543 1540 1537 1534 1531 1529 1526 1523 1520 1519 1519 1521 1524 1527 1528 1516 1508 1506 1506 1509 1506 1509 1505 1507 1507 1504 1499 1498 1500 1500 1504 1509 1494 1493 1493 1494 1494 1499 1507 1513 1510 1500
1556 1555 1554 1550 1546 1542 1538 1534 1531 1529 1526 1523 1522 1520 1517 1517 1519 1523 1529 1521 1508 1503 1505 1506 1506 1505 1506 1503 1505 1507 1501 1496 1494 1500 1501 1504 1508 1499 1495 1493 1494 1499 1500 1503 1509 1513 1515
1558 1554 1553 1551 1548 1544 1538 1534 1530 1527 1525 1522 1520 1522 1518 1518 1522 1519 1519 1511 1509 1504 1503 1503 1502 1503 1503 1502 1504 1507 1503 1496 1492 1494 1501 1501 1510 1513 1494 1490 1490 1491 1492 1498 1510 1506 1514
1558 1555 1553 1550 1547 1545 1540 1535 1531 1529 1526 1524 1524 1519 1519 1518 1522 1520 1515 1512 1509 1504 1504 1503 1503 1502 1501 1502 1504 1501 1497 1494 1493 1494 1498 1500 1507 1520 1497 1495 1492 1491 1492 1493 1501 1506 1507
1561 1558 1554 1550 1548 1544 1541 1536 1533 1531 1529 1526 1527 1525 1519 1518 1521 1520 1518 1513 1510 1506 1504 1503 1502 1501 1502 1501 1501 1497 1495 1493 1494 1493 1494 1495 1504 1498 1502 1491 1490 1491 1492 1491 1495 1514 1499
1560 1558 1556 1554 1549 1546 1541 1538 1534 1531 1528 1529 1530 1528 1526 1525 1522 1521 1520 1517 1515 1511 1506 1505 1502 1505 1504 1504 1501 1500 1498 1497 1494 1494 1495 1497 1501 1502 1495 1493 1492 1489 1489 1491 1493 1489 1490
1558 1556 1555 1554 1552 1547 1543 1538 1536 1533 1530 1532 1532 1533 1530 1526 1523 1522 1521 1518 1514 1515 1512 1508 1511 1512 1509 1508 1506 1507 1504 1502 1500 1497 1496 1498 1498 1497 1496 1487 1488 1485 1486 1481 1482 1479 1478
1557 1554 1551 1550 1550 1549 1543 1541 1539 1536 1534 1534 1533 1534 1534 1529 1524 1523 1522 1523 1521 1521 1513 1514 1516 1515 1510 1507 1507 1505 1504 1500 1496 1495 1497 1499 1498 1500 1480 1485 1485 1480 1475 1466 1463 1465 1464
1556 1555 1551 1547 1545 1546 1544 1542 1540 1538 1537 1536 1535 1535 1534 1530 1527 1525 1523 1523 1522 1522 1522 1517 1513 1513 1509 1504 1498 1493 1490 1485 1484 1482 1484 1489 1494 1496 1491 1484 1479 1451 1450 1451 1454 1449 1450
1555 1553 1551 1546 1544 1543 1542 1541 1540 1539 1537 1535 1534 1535 1534 1531 1529 1525 1523 1523 1521 1520 1517 1514 1511 1510 1507 1504 1498 1487 1481 1475 1466 1464 1468 1471 1482 1487 1486 1486 1451 1449 1443 1448 1447 1436 1434
1551 1551 1548 1545 1542 1541 1539 1538 1538 1537 1536 1533 1532 1533 1533 1531 1526 1525 1525 1524 1523 1519 1515 1512 1509 1508 1506 1502 1497 1491 1484 1472 1465 1465 1467 1470 1473 1474 1485 1476 1460 1440 1436 1433 1437 1443 1420
1547 1545 1545 1543 1539 1537 1536 1535 1534 1534 1533 1530 1529 1529 1529 1527 1521 1521 1521 1522 1522 1521 1519 1515 1511 1507 1504 1500 1493 1485 1477 1470 1468 1463 1470 1475 1475 1465 1461 1456 1439 1434 1433 1436 1444 1429 1418
1544 1542 1541 1539 1536 1534 1532 1531 1530 1529 1528 1527 1523 1524 1524 1520 1515 1514 1515 1517 1516 1517 1517 1513 1513 1505 1503 1500 1489 1478 1474 1466 1459 1453 1459 1459 1467 1465 1461 1458 1440 1426 1432 1437 1422 1419 1418
1540 1539 1538 1535 1532 1529 1528 1526 1524 1523 1522 1521 1518 1518 1517 1514 1510 1508 1507 1508 1509 1509 1510 1511 1511 1507 1502 1501 1494 1491 1482 1479 1470 1459 1445 1450 1442 1447 1441 1430 1421 1421 1418 1420 1420 1419 1420